Hot Springs, VA

5:12 PM EDT on May 28, 2017 (GMT -0400)
Ingalls

Weather History for KHSP - November, 2013

Change the Weather History Date:

Monday, November 11, 2013

  Actual Average Record
Temperature  
Mean Temperature 40 °F -  
Max Temperature 53 °F 45 °F 68 °F (2006)
Min Temperature 28 °F 32 °F 12 °F (1996)
Degree Days  
Heating Degree Days 24    
Moisture  
Dew Point 17 °F    
Average Humidity 42    
Maximum Humidity 86    
Minimum Humidity 16    
Precipitation  
Precipitation 0.00 in - - ()
Sea Level Pressure  
Sea Level Pressure 30.22 in    
Wind  
Wind Speed 14 mph (West)    
Max Wind Speed 24 mph    
Max Gust Speed 28 mph    
Visibility 10 miles    
Events      
Averages and records for this station are not official NWS values.
T = Trace of Precipitation, MM = Missing Value Source: NWS Daily Summary

Daily Weather History Graph

Daily Weather History Graph

Search for Another Location

Airport or City:

Trip Planner

Search our weather history database for the weather conditions in past years. The results will help you decide how hot, cold, wet, or windy it might be!

Date:

Astronomy

Nov. 11, 2013 Rise Set
Actual Time 6:55 AM EST 5:10 PM EST
Civil Twilight 6:27 AM EST 5:38 PM EST
Nautical Twilight 5:56 AM EST 6:09 PM EST
Astronomical Twilight 5:25 AM EST 6:40 PM EST
Moon 1:45 PM EST (11/11) 12:45 AM EST (11/11)
Length of Visible Light 11h 10m
Length of Day
10h 14m
Waxing Gibbous, 66% of the Moon is Illuminated
Nov 11
Waxing Gibbous
Nov 17
Full
Nov 25
Last Quarter
Dec 2
New
Dec 9
First Quarter

Hourly Weather History & Observations

Time (EST) Temp. Windchill Dew Point Humidity Pressure Visibility Wind Dir Wind Speed Gust Speed Precip Events Conditions
12:15 AM 30.2 °F 17.8 °F 24.8 °F 80% 30.27 in 10.0 mi NW 19.6 mph 26.5 mph N/A   Clear
12:35 AM 30.2 °F 17.1 °F 24.8 °F 80% 30.26 in 10.0 mi WNW 21.9 mph 27.6 mph N/A   Clear
12:55 AM 30.2 °F 17.1 °F 24.8 °F 80% 30.25 in 10.0 mi WNW 21.9 mph - N/A   Clear
1:15 AM 30.2 °F 18.1 °F 24.8 °F 80% 30.25 in 10.0 mi WNW 18.4 mph - N/A   Clear
1:55 AM 28.4 °F 17.0 °F 24.8 °F 86% 30.26 in 10.0 mi WNW 15.0 mph 20.7 mph N/A   Clear
2:15 AM 30.2 °F 18.5 °F 24.8 °F 80% 30.25 in 10.0 mi NW 17.3 mph 25.3 mph N/A   Clear
2:55 AM 28.4 °F 16.6 °F 24.8 °F 86% 30.25 in 10.0 mi WNW 16.1 mph - N/A   Clear
3:15 AM 30.2 °F 19.3 °F 24.8 °F 80% 30.25 in 10.0 mi WNW 15.0 mph - N/A   Clear
3:35 AM 30.2 °F 20.2 °F 23.0 °F 75% 30.26 in 10.0 mi WNW 12.7 mph - N/A   Clear
3:55 AM 28.4 °F 17.5 °F 24.8 °F 86% 30.26 in 10.0 mi WNW 13.8 mph - N/A   Clear
4:15 AM 30.2 °F 19.3 °F 23.0 °F 75% 30.25 in 10.0 mi West 15.0 mph - N/A   Clear
4:35 AM 30.2 °F 19.8 °F 23.0 °F 75% 30.26 in 10.0 mi West 13.8 mph - N/A   Clear
4:55 AM 30.2 °F 21.3 °F 21.2 °F 69% 30.26 in 10.0 mi WNW 10.4 mph - N/A   Clear
5:15 AM 32.0 °F 24.2 °F 21.2 °F 64% 30.26 in 10.0 mi WNW 9.2 mph - N/A   Clear
5:35 AM 30.2 °F 21.9 °F 21.2 °F 69% 30.26 in 10.0 mi West 9.2 mph - N/A   Clear
5:55 AM 30.2 °F 21.3 °F 21.2 °F 69% 30.26 in 10.0 mi West 10.4 mph - N/A   Clear
6:15 AM 32.0 °F 24.8 °F 19.4 °F 60% 30.26 in 10.0 mi West 8.1 mph - N/A   Clear
6:35 AM 33.8 °F 25.8 °F 15.8 °F 48% 30.26 in 10.0 mi WNW 10.4 mph - N/A   Clear
6:55 AM 30.2 °F 21.3 °F 21.2 °F 69% 30.27 in 10.0 mi West 10.4 mph - N/A   Clear
7:15 AM 32.0 °F 24.2 °F 19.4 °F 60% 30.28 in 10.0 mi West 9.2 mph - N/A   Clear
7:35 AM 39.2 °F 34.2 °F 8.6 °F 28% 30.28 in 10.0 mi West 6.9 mph - N/A   Clear
7:55 AM 39.2 °F 33.6 °F 12.2 °F 33% 30.29 in 10.0 mi West 8.1 mph - N/A   Clear
8:15 AM 33.8 °F 27.0 °F 23.0 °F 65% 30.30 in 10.0 mi West 8.1 mph - N/A   Clear
8:35 AM 37.4 °F 30.8 °F 21.2 °F 52% 30.30 in 10.0 mi West 9.2 mph - N/A   Clear
8:55 AM 39.2 °F 33.0 °F 10.4 °F 31% 30.30 in 10.0 mi West 9.2 mph - N/A   Clear
9:15 AM 42.8 °F 37.0 °F 8.6 °F 25% 30.30 in 10.0 mi West 10.4 mph - N/A   Clear
9:35 AM 44.6 °F 40.2 °F 5.0 °F 20% 30.30 in 10.0 mi WSW 8.1 mph - N/A   Clear
9:55 AM 46.4 °F 41.5 °F 1.4 °F 16% 30.30 in 10.0 mi WSW 10.4 mph - N/A   Clear
10:15 AM 44.6 °F 40.2 °F 15.8 °F 31% 30.30 in 10.0 mi West 8.1 mph - N/A   Clear
10:35 AM 44.6 °F 40.2 °F 15.8 °F 31% 30.30 in 10.0 mi WSW 8.1 mph - N/A   Clear
10:55 AM 48.2 °F - 5.0 °F 17% 30.30 in 10.0 mi WSW 9.2 mph - N/A   Clear
11:15 AM 50.0 °F - 5.0 °F 16% 30.28 in 10.0 mi WSW 8.1 mph - N/A   Clear
11:35 AM 50.0 °F - 17.6 °F 28% 30.27 in 10.0 mi SW 6.9 mph - N/A   Clear
11:55 AM 48.2 °F - 21.2 °F 34% 30.26 in 10.0 mi WSW 8.1 mph - N/A   Clear
12:15 PM 50.0 °F - 17.6 °F 28% 30.25 in 10.0 mi WNW 6.9 mph - N/A   Clear
12:35 PM 48.2 °F - 24.8 °F 40% 30.24 in 10.0 mi WNW 6.9 mph - N/A   Clear
12:55 PM 48.2 °F - 24.8 °F 40% 30.23 in 10.0 mi WSW 8.1 mph - N/A   Clear
1:15 PM 51.8 °F - 21.2 °F 30% 30.22 in 10.0 mi WSW 10.4 mph - N/A   Clear
1:35 PM 51.8 °F - 17.6 °F 26% 30.22 in 10.0 mi SW 5.8 mph 9.2 mph N/A   Clear
1:55 PM 51.8 °F - 19.4 °F 28% 30.21 in 10.0 mi WSW 10.4 mph - N/A   Clear
2:15 PM 51.8 °F - 19.4 °F 28% 30.20 in 10.0 mi WSW 10.4 mph - N/A   Clear
2:35 PM 51.8 °F - 19.4 °F 28% 30.19 in 10.0 mi West 10.4 mph - N/A   Clear
2:55 PM 53.6 °F - 19.4 °F 26% 30.19 in 10.0 mi WSW 12.7 mph 18.4 mph N/A   Clear
3:15 PM 51.8 °F - 19.4 °F 28% 30.19 in 10.0 mi WSW 13.8 mph - N/A   Clear
3:35 PM 51.8 °F - 17.6 °F 26% 30.19 in 10.0 mi WSW 12.7 mph - N/A   Clear
3:55 PM 51.8 °F - 19.4 °F 28% 30.18 in 10.0 mi SSW 6.9 mph - N/A   Clear
4:15 PM 51.8 °F - 19.4 °F 28% 30.18 in 10.0 mi WSW 9.2 mph - N/A   Clear
4:35 PM 50.0 °F - 17.6 °F 28% 30.17 in 10.0 mi SW 10.4 mph 19.6 mph N/A   Clear
4:55 PM 48.2 °F - 17.6 °F 30% 30.17 in 10.0 mi WSW 12.7 mph 18.4 mph N/A   Clear
5:15 PM 48.2 °F - 15.8 °F 27% 30.17 in 10.0 mi WSW 13.8 mph 18.4 mph N/A   Clear
5:35 PM 48.2 °F - 15.8 °F 27% 30.17 in 10.0 mi WSW 12.7 mph - N/A   Clear
5:55 PM 48.2 °F - 15.8 °F 27% 30.17 in 10.0 mi WSW 12.7 mph - N/A   Clear
6:15 PM 46.4 °F 41.1 °F 17.6 °F 32% 30.16 in 10.0 mi WSW 11.5 mph - N/A   Clear
6:35 PM 46.4 °F 42.4 °F 15.8 °F 29% 30.16 in 10.0 mi SW 8.1 mph - N/A   Clear
6:55 PM 46.4 °F 42.9 °F 15.8 °F 29% 30.16 in 10.0 mi SW 6.9 mph - N/A   Clear
7:15 PM 46.4 °F 41.9 °F 15.8 °F 29% 30.16 in 10.0 mi SW 9.2 mph - N/A   Clear
7:35 PM 46.4 °F 41.9 °F 15.8 °F 29% 30.15 in 10.0 mi SW 9.2 mph - N/A   Clear
7:55 PM 46.4 °F 41.5 °F 15.8 °F 29% 30.15 in 10.0 mi SW 10.4 mph - N/A   Clear
8:15 PM 46.4 °F 40.7 °F 15.8 °F 29% 30.14 in 10.0 mi WSW 12.7 mph - N/A   Clear
8:35 PM 46.4 °F 40.4 °F 15.8 °F 29% 30.14 in 10.0 mi WSW 13.8 mph - N/A   Clear
8:55 PM 46.4 °F 40.7 °F 15.8 °F 29% 30.14 in 10.0 mi WSW 12.7 mph - N/A   Clear
9:15 PM 46.4 °F 40.4 °F 15.8 °F 29% 30.13 in 10.0 mi WSW 13.8 mph - N/A   Clear
9:35 PM 48.2 °F - 12.2 °F 24% 30.13 in 10.0 mi WSW 16.1 mph 21.9 mph N/A   Clear
9:55 PM 48.2 °F - 12.2 °F 24% 30.12 in 10.0 mi West 15.0 mph 20.7 mph N/A   Scattered Clouds
10:15 PM 48.2 °F - 12.2 °F 24% 30.12 in 10.0 mi West 13.8 mph 20.7 mph N/A   Overcast
10:35 PM 48.2 °F - 12.2 °F 24% 30.12 in 10.0 mi West 12.7 mph 21.9 mph N/A   Overcast
10:55 PM 48.2 °F - 12.2 °F 24% 30.11 in 10.0 mi West 19.6 mph 25.3 mph N/A   Mostly Cloudy
11:15 PM 48.2 °F - 12.2 °F 24% 30.10 in 10.0 mi West 19.6 mph 26.5 mph N/A   Overcast
11:35 PM 48.2 °F - 12.2 °F 24% 30.09 in 10.0 mi West 21.9 mph 27.6 mph N/A   Overcast
11:55 PM 48.2 °F - 12.2 °F 24% 30.08 in 10.0 mi West 24.2 mph 27.6 mph N/A   Overcast